N5CSU Weather Reports


time (UTC)temp
F
wind
direction
speed
knots
gust
knots
rain 1hr
in
rain 24hr
in
rain mn
in
humidity
%
barometer
mb
20240527180223 91 162 0.0 0.0 0.00 0.00 0.00 71 1014.2
20240527175722 91 159 0.9 2.6 0.00 0.00 0.00 71 1014.2
20240527175220 91 169 0.0 0.0 0.00 0.00 0.00 69 1014.2
20240527174719 91 175 0.0 2.6 0.00 0.00 0.00 71 1014.2
20240527174218 91 158 2.6 4.3 0.00 0.00 0.00 67 1014.2
20240527173716 91 173 0.9 2.6 0.00 0.00 0.00 67 1014.2
20240527173215 90 170 0.9 2.6 0.00 0.00 0.00 70 1013.8
20240527172715 90 175 0.0 0.0 0.00 0.00 0.00 69 1014.2
20240527172215 90 173 0.0 0.0 0.00 0.00 0.00 69 1014.2
20240527171713 90 58 1.7 2.6 0.00 0.00 0.00 68 1014.5
20240527171212 90 167 0.0 0.0 0.00 0.00 0.00 68 1014.2
20240527170711 89 28 3.5 4.3 0.00 0.00 0.00 70 1014.2
20240527170210 89 163 0.0 0.0 0.00 0.00 0.00 69 1014.5
20240527165709 89 180 0.0 0.0 0.00 0.00 0.00 75 1014.8
20240527165208 89 164 0.0 2.6 0.00 0.00 0.00 74 1014.5
20240527164707 88 167 0.0 0.0 0.00 0.00 0.00 76 1014.5
20240527164206 88 162 0.0 0.0 0.00 0.00 0.00 77 1014.2
20240527163705 88 163 0.0 0.0 0.00 0.00 0.00 78 1014.5
20240527163205 87 168 0.0 0.0 0.00 0.00 0.00 78 1014.2
20240527162704 87 168 0.0 0.0 0.00 0.00 0.00 78 1014.2
20240527162203 87 174 0.0 0.0 0.00 0.00 0.00 79 1014.5
20240527161702 87 166 0.0 0.0 0.00 0.00 0.00 81 1014.2
20240527161201 87 187 0.9 2.6 0.00 0.00 0.00 80 1014.2
20240527160701 86 182 0.0 0.0 0.00 0.00 0.00 80 1014.2
20240527160159 86 176 0.0 0.0 0.00 0.00 0.00 80 1013.8
20240527155659 86 166 0.0 0.0 0.00 0.00 0.00 81 1014.2
20240527155157 86 165 0.0 2.6 0.00 0.00 0.00 82 1014.2
20240527154656 86 163 0.0 0.0 0.00 0.00 0.00 82 1014.2
20240527154156 85 162 0.0 0.0 0.00 0.00 0.00 83 1013.8
20240527153655 85 162 0.0 0.0 0.00 0.00 0.00 83 1013.8
20240527153154 85 174 0.0 0.0 0.00 0.00 0.00 83 1013.8
20240527152654 85 172 0.0 2.6 0.00 0.00 0.00 84 1014.2
20240527152152 84 173 0.0 0.0 0.00 0.00 0.00 84 1013.8
20240527151652 84 185 0.0 0.0 0.00 0.00 0.00 85 1013.8
20240527151151 84 172 0.0 0.0 0.00 0.00 0.00 87 1013.8
20240527150650 84 184 0.0 0.0 0.00 0.00 0.00 87 1013.8
20240527150150 84 164 0.0 0.0 0.00 0.00 0.00 86 1013.5
20240527145648 84 173 0.0 0.0 0.00 0.00 0.00 88 1013.8
20240527145147 83 169 0.0 0.0 0.00 0.00 0.00 88 1013.5
20240527144647 83 169 0.0 0.0 0.00 0.00 0.00 87 1013.8
20240527144146 83 172 0.0 0.0 0.00 0.00 0.00 87 1013.5
20240527143646 83 167 0.0 0.0 0.00 0.00 0.00 88 1013.8
20240527143145 82 173 0.0 0.0 0.00 0.00 0.00 88 1013.8
20240527142646 82 177 0.0 0.0 0.00 0.00 0.00 89 1013.5
20240527142145 82 167 0.0 0.0 0.00 0.00 0.00 89 1013.5
20240527141643 82 169 0.0 0.0 0.00 0.00 0.00 89 1013.5
20240527141142 81 161 0.0 0.0 0.00 0.00 0.00 90 1013.5
20240527140643 81 169 0.0 0.0 0.00 0.00 0.00 90 1013.5
20240527140141 80 163 0.9 2.6 0.00 0.00 0.00 91 1013.5
20240527135640 80 171 0.0 0.0 0.00 0.00 0.00 91 1013.5
20240527135139 80 167 0.0 0.0 0.00 0.00 0.00 92 1013.5
20240527134638 79 175 0.0 0.0 0.00 0.00 0.00 93 1013.5
20240527134137 79 175 0.0 0.0 0.00 0.00 0.00 93 1013.2
20240527133635 78 167 0.0 0.0 0.00 0.00 0.00 93 1013.2
20240527133135 78 168 0.0 0.0 0.00 0.00 0.00 94 1013.2
20240527132634 78 160 0.9 2.6 0.00 0.00 0.00 96 1013.2
20240527132133 77 171 0.0 0.0 0.00 0.00 0.00 97 1013.2
20240527131631 77 173 0.0 0.0 0.00 0.00 0.00 97 1013.2
20240527131130 77 173 0.0 0.0 0.00 0.00 0.00 97 1013.2
20240527130629 76 173 0.0 0.0 0.00 0.00 0.00 98 1012.8
20240527130128 76 179 0.0 0.0 0.00 0.00 0.00 98 1012.8
20240527125627 75 173 0.0 0.0 0.00 0.00 0.00 98 1012.8
20240527125126 75 173 0.0 0.0 0.00 0.00 0.00 98 1012.8
20240527124624 75 173 0.0 0.0 0.00 0.00 0.00 98 1012.8
20240527124107 75 173 0.0 0.0 0.00 0.00 0.00 98 1012.5
20240527123606 75 173 0.0 0.0 0.00 0.00 0.00 98 1012.5
20240527123105 74 173 0.0 0.0 0.00 0.00 0.00 98 1012.5
20240527122604 74 174 0.0 0.0 0.00 0.00 0.00 98 1012.1
20240527122104 74 174 0.0 0.0 0.00 0.00 0.00 98 1012.5
20240527121602 74 174 0.0 0.0 0.00 0.00 0.00 97 1012.5
20240527121101 74 174 0.0 0.0 0.00 0.00 0.00 97 1012.1
20240527120600 73 174 0.0 0.0 0.00 0.00 0.00 97 1012.1
20240527120059 73 174 0.0 0.0 0.00 0.00 0.00 97 1012.1
20240527115559 73 174 0.0 0.0 0.00 0.00 0.00 97 1011.8
20240527115058 73 173 0.0 0.0 0.00 0.00 0.00 97 1011.8
20240527114556 73 173 0.0 0.0 0.00 0.00 0.00 97 1011.5
20240527114055 73 175 0.0 0.0 0.00 0.00 0.00 97 1011.5
20240527113555 73 175 0.0 0.0 0.00 0.00 0.00 97 1011.5
20240527113054 73 175 0.0 0.0 0.00 0.00 0.00 97 1011.5
20240527112553 73 175 0.0 0.0 0.00 0.00 0.00 97 1011.1
20240527112053 73 175 0.0 0.0 0.00 0.00 0.00 97 1011.1
20240527111551 73 175 0.0 0.0 0.00 0.00 0.00 97 1010.8
20240527111051 73 175 0.0 0.0 0.00 0.00 0.00 97 1010.8
20240527110550 74 175 0.0 0.0 0.00 0.00 0.00 97 1010.8
20240527110048 74 175 0.0 0.0 0.00 0.00 0.00 97 1010.8
20240527105547 74 175 0.0 0.0 0.00 0.00 0.00 97 1010.4
20240527105046 74 175 0.0 0.0 0.00 0.00 0.00 97 1010.4
20240527104545 74 175 0.0 0.0 0.00 0.00 0.00 97 1010.4
20240527104044 74 175 0.0 0.0 0.00 0.00 0.00 97 1010.8
20240527103543 74 175 0.0 0.0 0.00 0.00 0.00 97 1010.8
20240527103043 74 175 0.0 0.0 0.00 0.00 0.00 97 1010.8
20240527102541 74 175 0.0 0.0 0.00 0.00 0.00 97 1010.4
20240527102041 74 175 0.0 0.0 0.00 0.00 0.00 97 1010.4
20240527101540 74 175 0.0 0.0 0.00 0.00 0.00 97 1010.4
20240527101040 74 175 0.0 0.0 0.00 0.00 0.00 97 1010.4
20240527100539 74 175 0.0 0.0 0.00 0.00 0.00 97 1010.4
20240527100037 74 175 0.0 0.0 0.00 0.00 0.00 97 1010.4
20240527095537 74 175 0.0 0.0 0.00 0.00 0.00 97 1010.4
20240527095037 74 175 0.0 0.0 0.00 0.00 0.00 97 1010.1
20240527094536 74 175 0.0 0.0 0.00 0.00 0.00 97 1010.4
20240527094035 74 175 0.0 0.0 0.00 0.00 0.00 97 1010.1
20240527093534 75 175 0.0 0.0 0.00 0.00 0.00 97 1010.1
20240527093032 75 175 0.0 0.0 0.00 0.00 0.00 97 1010.1
20240527092531 75 175 0.0 0.0 0.00 0.00 0.00 97 1010.1
20240527092029 75 175 0.0 0.0 0.00 0.00 0.00 97 1010.1
20240527091529 75 175 0.0 0.0 0.00 0.00 0.00 97 1010.1
20240527091028 75 175 0.0 0.0 0.00 0.00 0.00 97 1009.8
20240527090526 75 175 0.0 0.0 0.00 0.00 0.00 96 1009.8
20240527090025 75 174 0.0 0.0 0.00 0.00 0.00 96 1009.8
20240527085523 75 174 0.0 0.0 0.00 0.00 0.00 96 1009.8
20240527085022 75 174 0.0 0.0 0.00 0.00 0.00 96 1009.8
20240527084521 75 174 0.0 0.0 0.00 0.00 0.00 96 1009.4
20240527084021 75 174 0.0 0.0 0.00 0.00 0.00 96 1009.8
20240527083520 75 174 0.0 0.0 0.00 0.00 0.00 96 1009.8
20240527083019 75 174 0.0 0.0 0.00 0.00 0.00 96 1009.8
20240527082518 75 174 0.0 0.0 0.00 0.00 0.00 97 1009.8
20240527082017 76 174 0.0 0.0 0.00 0.00 0.00 96 1009.8
20240527081517 76 174 0.0 0.0 0.00 0.00 0.00 96 1009.4
20240527081016 76 174 0.0 0.0 0.00 0.00 0.00 96 1009.8
20240527080514 76 174 0.0 0.0 0.00 0.00 0.00 96 1009.8
20240527080012 76 174 0.0 0.0 0.00 0.00 0.00 96 1009.4
20240527075511 76 174 0.0 0.0 0.00 0.00 0.00 96 1009.4
20240527075010 76 174 0.0 0.0 0.00 0.00 0.00 96 1009.8
20240527074509 76 174 0.0 0.0 0.00 0.00 0.00 96 1009.4
20240527074009 76 174 0.0 0.0 0.00 0.00 0.00 96 1009.4
20240527073508 76 174 0.0 0.0 0.00 0.00 0.00 96 1009.4
20240527073009 77 174 0.0 0.0 0.00 0.00 0.00 96 1009.4
20240527072508 77 174 0.0 0.0 0.00 0.00 0.00 96 1009.4
20240527072007 77 174 0.0 0.0 0.00 0.00 0.00 96 1009.4
20240527071505 77 174 0.0 0.0 0.00 0.00 0.00 96 1009.4
20240527071005 77 174 0.0 0.0 0.00 0.00 0.00 96 1009.8
20240527070503 77 174 0.0 0.0 0.00 0.00 0.00 96 1009.8
20240527070000 77 174 0.0 0.0 0.00 0.00 0.00 96 1009.4
20240527065459 77 174 0.0 0.0 0.00 0.00 0.00 96 1009.1
20240527064957 77 174 0.0 0.0 0.00 0.00 0.00 96 1009.4
20240527064456 77 174 0.0 0.0 0.00 0.00 0.00 96 1009.4
20240527063955 77 174 0.0 0.0 0.00 0.00 0.00 96 1009.4
20240527063455 78 174 0.0 0.0 0.00 0.00 0.00 96 1009.4
20240527062952 78 174 0.0 0.0 0.00 0.00 0.00 95 1009.4
20240527062452 78 174 0.0 0.0 0.00 0.00 0.00 95 1009.4
20240527061950 78 174 0.0 0.0 0.00 0.00 0.00 95 1009.1
20240527061449 78 174 0.0 0.0 0.00 0.00 0.00 95 1009.4
20240527060947 78 174 0.0 0.0 0.00 0.00 0.00 95 1009.4
20240527060445 78 174 0.0 0.0 0.00 0.00 0.00 95 1009.1
20240527055944 78 174 0.0 0.0 0.00 0.00 0.00 95 1009.4
20240527055443 79 174 0.0 0.0 0.00 0.00 0.00 95 1009.4
20240527054941 79 174 0.0 0.0 0.00 0.00 0.00 95 1009.1
20240527054440 79 174 0.0 0.0 0.00 0.00 0.00 95 1009.1
20240527053938 79 174 0.0 0.0 0.00 0.00 0.00 94 1009.1
20240527053438 79 174 0.0 0.0 0.00 0.00 0.00 94 1009.1
20240527052935 79 174 0.0 0.0 0.00 0.00 0.00 94 1008.8
20240527052435 79 174 0.0 0.0 0.00 0.00 0.00 94 1009.1
20240527051934 80 174 0.0 0.0 0.00 0.00 0.00 93 1008.8
20240527051433 80 174 0.0 0.0 0.00 0.00 0.00 93 1008.8
20240527050932 80 174 0.0 0.0 0.00 0.00 0.00 93 1008.8
20240527050431 80 174 0.0 0.0 0.00 0.00 0.00 93 1008.8
20240527045931 80 174 0.0 0.0 0.00 0.00 0.00 93 1008.8
20240527045431 80 174 0.0 0.0 0.00 0.00 0.00 92 1008.8
20240527044929 80 174 0.0 0.0 0.00 0.00 0.00 92 1008.8
20240527044427 80 174 0.0 0.0 0.00 0.00 0.00 92 1008.8
20240527043927 81 174 0.0 0.0 0.00 0.00 0.00 92 1008.8
20240527043427 81 174 0.0 0.0 0.00 0.00 0.00 91 1008.8
20240527042926 81 174 0.0 0.0 0.00 0.00 0.00 91 1008.8
20240527042425 81 174 0.0 0.0 0.00 0.00 0.00 91 1008.8
20240527041924 81 174 0.0 0.0 0.00 0.00 0.00 91 1008.8
20240527041424 81 174 0.0 0.0 0.00 0.00 0.00 90 1008.8
20240527040923 82 174 0.0 0.0 0.00 0.00 0.00 90 1008.3
20240527040422 82 174 0.0 0.0 0.00 0.00 0.00 90 1008.0
20240527035921 82 175 0.0 0.0 0.00 0.00 0.00 90 1008.3
20240527035419 82 174 0.0 0.0 0.00 0.00 0.00 90 1008.3
20240527034918 83 174 0.0 0.0 0.00 0.00 0.00 89 1008.0
20240527034417 83 174 0.0 0.0 0.00 0.00 0.00 89 1008.3
20240527033916 83 174 0.0 0.0 0.00 0.00 0.00 88 1008.3
20240527033417 83 174 0.0 0.0 0.00 0.00 0.00 88 1008.0
20240527032915 83 174 0.0 0.0 0.00 0.00 0.00 87 1007.6
20240527032414 83 174 0.0 0.0 0.00 0.00 0.00 86 1008.0
20240527031913 83 174 0.0 0.0 0.00 0.00 0.00 86 1007.6
20240527031413 83 174 0.0 0.0 0.00 0.00 0.00 85 1007.6
20240527030911 83 174 0.0 0.0 0.00 0.00 0.00 84 1007.6
20240527030411 83 174 0.0 0.0 0.00 0.00 0.00 84 1007.6
20240527025909 83 174 0.0 0.0 0.00 0.00 0.00 83 1007.3
20240527025408 83 175 0.0 0.0 0.00 0.00 0.00 82 1007.3
20240527024908 83 175 0.0 0.0 0.00 0.00 0.00 82 1007.3
20240527024407 83 175 0.0 0.0 0.00 0.00 0.00 82 1007.3
20240527023906 83 174 0.0 0.0 0.00 0.00 0.00 81 1007.0
20240527023406 83 174 0.0 0.0 0.00 0.00 0.00 81 1007.0
20240527022904 83 174 0.0 0.0 0.00 0.00 0.00 81 1007.0
20240527022403 83 174 0.0 0.0 0.00 0.00 0.00 81 1006.6
20240527021902 83 174 0.0 0.0 0.00 0.00 0.00 80 1006.6
20240527021400 83 174 0.0 0.0 0.00 0.00 0.00 80 1006.6
20240527020859 84 174 0.0 0.0 0.00 0.00 0.00 78 1006.3
20240527020357 84 174 0.0 0.0 0.00 0.00 0.00 78 1006.3
20240527015855 84 174 0.0 0.0 0.00 0.00 0.00 77 1005.9
20240527015354 84 174 0.0 0.0 0.00 0.00 0.00 76 1006.3
20240527014459 85 174 0.0 0.0 0.00 0.00 0.00 72 1006.3
20240527013958 85 174 0.0 0.0 0.00 0.00 0.00 72 1006.3
20240527013454 85 174 0.0 0.0 0.00 0.00 0.00 72 1006.3
20240527012953 85 174 0.0 0.0 0.00 0.00 0.00 72 1005.9
20240527012451 86 174 0.0 0.0 0.00 0.00 0.00 70 1005.9
20240527011950 86 174 0.0 0.0 0.00 0.00 0.00 69 1005.9
20240527011448 87 174 0.0 0.0 0.00 0.00 0.00 68 1005.6
20240527010947 87 174 0.0 0.0 0.00 0.00 0.00 66 1005.9
20240527010446 88 174 0.0 0.0 0.00 0.00 0.00 64 1005.9
20240527005946 89 174 0.0 0.0 0.00 0.00 0.00 60 1005.9
20240527005445 89 174 0.0 0.0 0.00 0.00 0.00 60 1005.9
20240527004943 89 174 0.0 0.0 0.00 0.00 0.00 57 1005.3
20240527004443 89 174 0.0 0.0 0.00 0.00 0.00 57 1005.3
20240527003942 89 174 0.0 0.0 0.00 0.00 0.00 58 1005.3
20240527003440 90 174 0.0 0.0 0.00 0.00 0.00 56 1005.6
20240527002940 90 174 0.0 0.0 0.00 0.00 0.00 58 1005.3
20240527002440 90 174 0.0 0.0 0.00 0.00 0.00 57 1005.3
20240527001938 91 174 0.0 0.0 0.00 0.00 0.00 56 1005.3
20240527001436 91 174 0.0 0.0 0.00 0.00 0.00 55 1005.3
20240527000935 91 175 0.0 0.0 0.00 0.00 0.00 54 1005.3
20240527000434 91 174 0.0 0.0 0.00 0.00 0.00 54 1004.9
20240526235933 92 182 0.0 0.0 0.00 0.00 0.00 55 1005.3
20240526235431 92 168 0.0 0.0 0.00 0.00 0.00 54 1004.9
20240526234930 92 172 0.0 0.0 0.00 0.00 0.00 55 1004.9
20240526234428 92 173 0.0 0.0 0.00 0.00 0.00 55 1004.9
20240526233927 92 174 0.0 0.0 0.00 0.00 0.00 53 1004.9
20240526233426 93 165 0.0 0.0 0.00 0.00 0.00 54 1004.9
20240526232924 93 175 1.7 2.6 0.00 0.00 0.00 58 1004.9
20240526232423 93 178 0.0 0.0 0.00 0.00 0.00 57 1004.9
20240526231922 93 178 0.0 0.0 0.00 0.00 0.00 55 1004.9
20240526231421 93 171 0.0 0.0 0.00 0.00 0.00 54 1004.6
20240526230919 93 189 0.0 0.0 0.00 0.00 0.00 53 1004.9
20240526230418 93 174 0.0 0.0 0.00 0.00 0.00 54 1004.6
20240526225916 93 180 0.0 0.0 0.00 0.00 0.00 53 1004.9
20240526225415 93 181 0.0 0.0 0.00 0.00 0.00 58 1004.6
20240526224914 93 163 0.0 2.6 0.00 0.00 0.00 56 1004.6
20240526224412 93 167 0.9 2.6 0.00 0.00 0.00 54 1004.6
20240526223910 93 165 0.0 0.0 0.00 0.00 0.00 56 1004.6
20240526223410 93 164 0.9 2.6 0.00 0.00 0.00 55 1004.9
20240526222906 93 180 0.0 0.0 0.00 0.00 0.00 54 1004.9
20240526222404 93 181 0.0 0.0 0.00 0.00 0.00 55 1004.6
20240526221903 94 163 1.7 2.6 0.00 0.00 0.00 54 1004.6
20240526221402 94 165 1.7 2.6 0.00 0.00 0.00 54 1004.6
20240526220901 94 173 0.0 0.0 0.00 0.00 0.00 55 1004.9
20240526220359 94 186 0.9 2.6 0.00 0.00 0.00 56 1004.6
20240526215857 93 166 3.5 4.3 0.00 0.00 0.00 52 1004.6
20240526215356 93 176 0.0 0.0 0.00 0.00 0.00 57 1004.9
20240526214852 93 182 0.9 2.6 0.00 0.00 0.00 57 1004.9
20240526214352 93 156 0.9 2.6 0.00 0.00 0.00 56 1004.6
20240526213850 93 171 0.9 2.6 0.00 0.00 0.00 55 1004.9
20240526213350 93 163 0.0 0.0 0.00 0.00 0.00 54 1004.6
20240526212846 93 171 2.6 2.6 0.00 0.00 0.00 57 1004.6
20240526212345 93 182 0.0 0.0 0.00 0.00 0.00 60 1004.6
20240526211844 93 170 0.0 0.0 0.00 0.00 0.00 59 1004.9
20240526211341 93 181 0.9 2.6 0.00 0.00 0.00 58 1004.9
20240526210840 93 166 0.0 2.6 0.00 0.00 0.00 58 1004.9
20240526210340 93 166 2.6 4.3 0.00 0.00 0.00 58 1004.9
20240526205840 93 175 0.0 0.0 0.00 0.00 0.00 60 1004.9
20240526205339 93 170 1.7 2.6 0.00 0.00 0.00 59 1004.9
20240526204838 92 177 0.0 0.0 0.00 0.00 0.00 61 1004.9
20240526204337 92 177 1.7 2.6 0.00 0.00 0.00 60 1004.9
20240526203835 92 170 3.5 4.3 0.00 0.00 0.00 59 1005.3
20240526203334 92 200 0.0 2.6 0.00 0.00 0.00 61 1005.3
20240526202833 92 169 0.0 0.0 0.00 0.00 0.00 59 1005.3
20240526202332 92 147 2.6 2.6 0.00 0.00 0.00 60 1005.3
20240526201830 92 216 0.0 0.0 0.00 0.00 0.00 61 1005.3
20240526201329 92 168 0.0 0.0 0.00 0.00 0.00 58 1005.3
20240526200828 92 151 0.9 2.6 0.00 0.00 0.00 64 1005.3
20240526200326 92 194 3.5 4.3 0.00 0.00 0.00 60 1005.3
20240526195824 92 191 0.0 2.6 0.00 0.00 0.00 62 1005.3
20240526195322 92 143 0.9 2.6 0.00 0.00 0.00 63 1004.9
20240526194821 91 201 0.9 2.6 0.00 0.00 0.00 61 1005.3
20240526194320 91 181 2.6 4.3 0.00 0.00 0.00 61 1004.9
20240526193819 91 159 1.7 4.3 0.00 0.00 0.00 62 1005.3
20240526193319 91 200 0.0 0.0 0.00 0.00 0.00 61 1005.3
20240526192820 91 172 0.0 2.6 0.00 0.00 0.00 63 1005.3
20240526192319 91 176 0.0 0.0 0.00 0.00 0.00 60 1005.3
20240526191818 91 157 5.2 6.1 0.00 0.00 0.00 60 1005.3
20240526191317 91 305 0.9 2.6 0.00 0.00 0.00 62 1005.3
20240526190816 91 167 1.7 4.3 0.00 0.00 0.00 60 1005.3
20240526190314 91 178 0.9 2.6 0.00 0.00 0.00 64 1005.3
20240526185814 91 177 0.9 2.6 0.00 0.00 0.00 62 1005.3
20240526185312 91 182 1.7 2.6 0.00 0.00 0.00 60 1005.3
20240526184810 91 153 0.9 4.3 0.00 0.00 0.00 62 1005.3
20240526184309 91 147 2.6 2.6 0.00 0.00 0.00 62 1005.3
20240526183807 90 183 0.0 2.6 0.00 0.00 0.00 61 1005.3
20240526183306 90 165 2.6 2.6 0.00 0.00 0.00 62 1005.6
20240526182805 90 169 2.6 2.6 0.00 0.00 0.00 60 1005.3
20240526182304 90 180 0.9 2.6 0.00 0.00 0.00 60 1005.6
20240526181803 90 180 0.9 2.6 0.00 0.00 0.00 60 1005.6
20240526181303 90 172 0.0 0.0 0.00 0.00 0.00 61 1005.6
20240526180801 90 169 3.5 6.1 0.00 0.00 0.00 58 1005.6